TimeCST,TemperatureF,Dew PointF,Humidity,Sea Level PressureIn,VisibilityMPH,Wind Direction,Wind SpeedMPH,Gust SpeedMPH,PrecipitationIn,Events,Conditions,WindDirDegrees,DateUTC
12:15 AM,19.4,6.8,58,30.29,10.0,West,4.6,-,N/A,,Clear,280,2012-11-12 06:15:00
12:55 AM,19.4,3.2,49,30.29,10.0,West,6.9,-,N/A,,Clear,260,2012-11-12 06:55:00
1:15 AM,21.2,10.4,63,30.29,10.0,West,9.2,-,N/A,,Clear,260,2012-11-12 07:15:00
1:35 AM,21.2,8.6,58,30.29,10.0,WSW,10.4,-,N/A,,Clear,240,2012-11-12 07:35:00
1:55 AM,21.2,8.6,58,30.31,10.0,West,6.9,-,N/A,,Clear,260,2012-11-12 07:55:00
2:15 AM,21.2,10.4,63,30.31,10.0,WNW,5.8,-,N/A,,Scattered Clouds,290,2012-11-12 08:15:00
2:35 AM,21.2,8.6,58,30.32,10.0,West,9.2,-,N/A,,Partly Cloudy,260,2012-11-12 08:35:00
2:55 AM,21.2,10.4,63,30.32,10.0,WSW,8.1,-,N/A,,Clear,250,2012-11-12 08:55:00
3:15 AM,21.2,12.2,68,30.33,10.0,WSW,9.2,-,N/A,,Clear,250,2012-11-12 09:15:00
3:35 AM,21.2,8.6,58,30.32,10.0,SW,10.4,-,N/A,,Clear,230,2012-11-12 09:35:00
3:55 AM,23.0,12.2,63,30.32,10.0,WSW,10.4,-,N/A,,Clear,240,2012-11-12 09:55:00
4:15 AM,24.8,12.2,59,30.32,10.0,WSW,11.5,-,N/A,,Clear,240,2012-11-12 10:15:00
4:35 AM,24.8,12.2,59,30.33,10.0,WSW,10.4,-,N/A,,Clear,250,2012-11-12 10:35:00
4:55 AM,24.8,12.2,59,30.33,10.0,WSW,10.4,-,N/A,,Clear,250,2012-11-12 10:55:00
5:15 AM,23.0,10.4,59,30.33,10.0,SW,9.2,-,N/A,,Clear,230,2012-11-12 11:15:00
5:35 AM,21.2,10.4,63,30.34,10.0,WSW,8.1,-,N/A,,Clear,240,2012-11-12 11:35:00
5:55 AM,19.4,10.4,68,30.34,10.0,WSW,9.2,-,N/A,,Clear,250,2012-11-12 11:55:00
6:15 AM,23.0,14.0,68,30.34,10.0,WSW,11.5,-,N/A,,Clear,250,2012-11-12 12:15:00
6:35 AM,23.0,14.0,68,30.34,10.0,WSW,11.5,-,N/A,,Clear,250,2012-11-12 12:35:00
6:55 AM,21.2,12.2,68,30.35,10.0,WSW,11.5,-,N/A,,Clear,250,2012-11-12 12:55:00
7:15 AM,21.2,12.2,68,30.36,10.0,WSW,10.4,-,N/A,,Clear,250,2012-11-12 13:15:00
7:35 AM,21.2,10.4,63,30.37,10.0,West,9.2,-,N/A,,Clear,270,2012-11-12 13:35:00
7:55 AM,21.2,10.4,63,30.38,10.0,West,8.1,-,N/A,,Clear,270,2012-11-12 13:55:00
8:15 AM,24.8,14.0,64,30.39,10.0,West,11.5,-,N/A,,Clear,280,2012-11-12 14:15:00
8:35 AM,26.6,17.6,69,30.40,10.0,WNW,11.5,17.3,N/A,,Clear,300,2012-11-12 14:35:00
8:55 AM,30.2,17.6,60,30.40,10.0,NW,11.5,-,N/A,,Clear,310,2012-11-12 14:55:00
9:15 AM,33.8,15.8,48,30.41,10.0,NW,11.5,-,N/A,,Clear,310,2012-11-12 15:15:00
9:55 AM,35.6,19.4,52,30.42,10.0,NW,9.2,-,N/A,,Clear,320,2012-11-12 15:55:00
10:15 AM,37.4,19.4,48,30.43,10.0,NW,9.2,-,N/A,,Clear,320,2012-11-12 16:15:00
10:35 AM,41.0,19.4,42,30.43,10.0,NNW,8.1,-,N/A,,Clear,330,2012-11-12 16:35:00
10:55 AM,42.8,21.2,42,30.43,10.0,North,8.1,-,N/A,,Clear,10,2012-11-12 16:55:00
11:15 AM,42.8,21.2,42,30.43,10.0,NNE,5.8,-,N/A,,Clear,30,2012-11-12 17:15:00
11:35 AM,42.8,21.2,42,30.42,10.0,NNE,5.8,-,N/A,,Clear,30,2012-11-12 17:35:00
11:55 AM,44.6,19.4,37,30.42,10.0,Calm,Calm,-,N/A,,Clear,0,2012-11-12 17:55:00
12:15 PM,46.4,19.4,34,30.41,10.0,NNW,3.5,-,N/A,,Clear,330,2012-11-12 18:15:00
12:35 PM,46.4,17.6,32,30.40,10.0,NNW,5.8,-,N/A,,Clear,340,2012-11-12 18:35:00
12:55 PM,46.4,17.6,32,30.39,10.0,Calm,Calm,-,N/A,,Clear,0,2012-11-12 18:55:00
1:15 PM,48.2,15.8,27,30.38,10.0,Calm,Calm,-,N/A,,Clear,0,2012-11-12 19:15:00
1:35 PM,48.2,15.8,27,30.37,10.0,WNW,4.6,-,N/A,,Clear,290,2012-11-12 19:35:00
1:55 PM,50.0,14.0,24,30.37,10.0,Calm,Calm,-,N/A,,Clear,0,2012-11-12 19:55:00
2:15 PM,50.0,12.2,22,30.37,10.0,West,3.5,-,N/A,,Clear,270,2012-11-12 20:15:00
2:35 PM,51.8,10.4,19,30.36,10.0,West,5.8,-,N/A,,Clear,260,2012-11-12 20:35:00
2:55 PM,51.8,8.6,18,30.36,10.0,SSW,4.6,-,N/A,,Clear,210,2012-11-12 20:55:00
3:15 PM,51.8,8.6,18,30.36,10.0,WSW,9.2,-,N/A,,Clear,250,2012-11-12 21:15:00
3:35 PM,51.8,8.6,18,30.36,10.0,SW,8.1,-,N/A,,Clear,230,2012-11-12 21:35:00
3:55 PM,51.8,8.6,18,30.36,10.0,South,5.8,-,N/A,,Clear,190,2012-11-12 21:55:00
4:35 PM,51.8,6.8,16,30.36,10.0,SSW,8.1,-,N/A,,Clear,210,2012-11-12 22:35:00
4:55 PM,50.0,5.0,16,30.36,10.0,SSW,4.6,-,N/A,,Clear,200,2012-11-12 22:55:00
5:15 PM,48.2,3.2,16,30.36,10.0,South,5.8,-,N/A,,Clear,170,2012-11-12 23:15:00
5:35 PM,46.4,5.0,18,30.36,10.0,SSE,5.8,-,N/A,,Clear,160,2012-11-12 23:35:00
5:55 PM,44.6,3.2,18,30.35,10.0,SSE,6.9,-,N/A,,Clear,150,2012-11-12 23:55:00
6:15 PM,44.6,1.4,17,30.36,10.0,SE,6.9,-,N/A,,Clear,130,2012-11-13 00:15:00
6:35 PM,41.0,1.4,19,30.36,10.0,SE,6.9,-,N/A,,Clear,130,2012-11-13 00:35:00
6:55 PM,41.0,1.4,19,30.36,10.0,SE,6.9,-,N/A,,Clear,140,2012-11-13 00:55:00
7:15 PM,39.2,1.4,21,30.37,10.0,SE,6.9,-,N/A,,Clear,130,2012-11-13 01:15:00
7:35 PM,37.4,1.4,22,30.36,10.0,SE,8.1,-,N/A,,Clear,130,2012-11-13 01:35:00
7:55 PM,37.4,1.4,22,30.36,10.0,SE,9.2,-,N/A,,Clear,130,2012-11-13 01:55:00
8:15 PM,35.6,1.4,24,30.37,10.0,SSE,6.9,-,N/A,,Clear,150,2012-11-13 02:15:00
8:35 PM,33.8,-0.4,23,30.37,10.0,SSE,9.2,-,N/A,,Clear,150,2012-11-13 02:35:00
8:55 PM,30.2,-0.4,27,30.37,10.0,SSE,6.9,-,N/A,,Clear,160,2012-11-13 02:55:00
9:15 PM,30.2,1.4,29,30.38,10.0,SSE,6.9,-,N/A,,Clear,160,2012-11-13 03:15:00
9:35 PM,30.2,1.4,29,30.38,10.0,South,9.2,-,N/A,,Clear,170,2012-11-13 03:35:00
9:55 PM,30.2,1.4,29,30.38,10.0,South,9.2,-,N/A,,Clear,170,2012-11-13 03:55:00
10:15 PM,28.4,1.4,31,30.38,10.0,South,9.2,-,N/A,,Clear,180,2012-11-13 04:15:00
10:35 PM,28.4,1.4,31,30.38,10.0,South,6.9,-,N/A,,Clear,190,2012-11-13 04:35:00
10:55 PM,28.4,1.4,31,30.37,10.0,South,6.9,-,N/A,,Clear,190,2012-11-13 04:55:00
11:15 PM,26.6,1.4,34,30.37,10.0,SSW,5.8,-,N/A,,Clear,210,2012-11-13 05:15:00
11:35 PM,26.6,1.4,34,30.37,10.0,SW,6.9,-,N/A,,Clear,220,2012-11-13 05:35:00
11:55 PM,26.6,1.4,34,30.37,10.0,SW,6.9,-,N/A,,Clear,220,2012-11-13 05:55:00